Platteville, WI

12:49 PM CST on February 13, 2016 (GMT -0600)
Platteville Municipal

Weather History for KPVB - October, 2012

Change the Weather History Date:

Wednesday, October 17, 2012

  Actual Average (KDBQ) Record (KDBQ)
Temperature  
Mean Temperature 54 °F 50 °F  
Max Temperature 62 °F 60 °F 86 °F (1950)
Min Temperature 46 °F 40 °F 22 °F (2004)
Degree Days  
Heating Degree Days 11 15  
Month to date heating degree days 218  
Since 1 July heating degree days 396  
Cooling Degree Days 0 0  
Month to date cooling degree days 4  
Year to date cooling degree days 641  
Growing Degree Days 4 (Base 50)    
Moisture  
Dew Point 49 °F    
Average Humidity 80    
Maximum Humidity 94    
Minimum Humidity 63    
Precipitation  
Precipitation 0.45 in 0.08 in 2.24 in (1905)
Month to date precipitation 1.45  
Year to date precipitation 30.89  
Snow  
Snow 0.00 in 0.00 in - ()
Month to date snowfall 0.0  
Since 1 July snowfall 0.0  
Since 1 September snowfall 0.0  
Snow Depth -    
Sea Level Pressure  
Sea Level Pressure 29.40 in    
Wind  
Wind Speed 11 mph (South)    
Max Wind Speed 20 mph    
Max Gust Speed 26 mph    
Visibility 9 miles    
Events      
T = Trace of Precipitation, MM = Missing Value Source: NWS Daily Summary

Daily Weather History Graph

Daily Weather History Graph

Search for Another Location

Airport or City:

Trip Planner

Search our weather history database for the weather conditions in past years. The results will help you decide how hot, cold, wet, or windy it might be!

Date:

Astronomy

Oct. 17, 2012 Rise Set
Actual Time 7:17 AM CDT 6:15 PM CDT
Civil Twilight 6:49 AM CDT 6:43 PM CDT
Nautical Twilight 6:16 AM CDT 7:16 PM CDT
Astronomical Twilight 5:43 AM CDT 7:49 PM CDT
Moon 9:56 AM CDT (10/17) 7:47 PM CDT (10/17)
Length of Visible Light 11h 54m
Length of Day
10h 57m
Waxing Crescent, 7% of the Moon is Illuminated
Oct 17
Waxing Crescent
Oct 21
First Quarter
Oct 29
Full
Nov 6
Last Quarter
Nov 13
New

Hourly Weather History & Observations

Time (CDT) Temp. Windchill Dew Point Humidity Pressure Visibility Wind Dir Wind Speed Gust Speed Precip Events Conditions
12:15 AM 55.4 °F - 50.0 °F 82% 29.47 in 10.0 mi South 9.2 mph - N/A   Clear
12:35 AM 55.4 °F - 50.0 °F 82% 29.47 in 10.0 mi South 8.1 mph - N/A   Clear
12:55 AM 53.6 °F - 48.2 °F 82% 29.48 in 10.0 mi South 9.2 mph - N/A   Clear
1:15 AM 55.4 °F - 50.0 °F 82% 29.47 in 10.0 mi South 8.1 mph - N/A   Clear
1:35 AM 55.4 °F - 50.0 °F 82% 29.47 in 10.0 mi South 8.1 mph - N/A   Clear
1:55 AM 53.6 °F - 48.2 °F 82% 29.47 in 10.0 mi South 6.9 mph - N/A   Clear
2:15 AM 53.6 °F - 48.2 °F 82% 29.47 in 10.0 mi SSE 5.8 mph - N/A   Clear
2:35 AM 53.6 °F - 48.2 °F 82% 29.46 in 10.0 mi SSE 8.1 mph - N/A   Clear
2:55 AM 51.8 °F - 46.4 °F 82% 29.45 in 10.0 mi SSE 6.9 mph - N/A   Clear
3:15 AM 53.6 °F - 46.4 °F 77% 29.45 in 10.0 mi SSE 9.2 mph - N/A   Clear
3:35 AM 53.6 °F - 46.4 °F 77% 29.47 in 10.0 mi South 10.4 mph - N/A   Clear
3:55 AM 53.6 °F - 46.4 °F 77% 29.45 in 10.0 mi South 9.2 mph - N/A   Clear
4:15 AM 51.8 °F - 46.4 °F 82% 29.45 in 10.0 mi South 9.2 mph - N/A   Clear
4:35 AM 53.6 °F - 46.4 °F 77% 29.45 in 10.0 mi South 9.2 mph - N/A   Clear
4:55 AM 53.6 °F - 46.4 °F 77% 29.45 in 10.0 mi South 8.1 mph - N/A   Clear
5:15 AM 51.8 °F - 44.6 °F 76% 29.44 in 10.0 mi SSE 8.1 mph - N/A   Clear
5:35 AM 51.8 °F - 44.6 °F 76% 29.43 in 10.0 mi SSE 10.4 mph - N/A   Clear
5:55 AM 51.8 °F - 44.6 °F 76% 29.43 in 10.0 mi SSE 10.4 mph - N/A   Clear
6:15 AM 51.8 °F - 44.6 °F 76% 29.43 in 10.0 mi SSE 8.1 mph - N/A   Clear
6:55 AM 53.6 °F - 44.6 °F 72% 29.43 in 10.0 mi South 10.4 mph - N/A   Clear
7:15 AM 53.6 °F - 44.6 °F 72% 29.42 in 10.0 mi SSE 12.7 mph - N/A   Clear
7:35 AM 53.6 °F - 44.6 °F 72% 29.42 in 10.0 mi SSE 11.5 mph - N/A   Clear
7:55 AM 53.6 °F - 44.6 °F 72% 29.43 in 10.0 mi SSE 9.2 mph - N/A   Clear
8:15 AM 53.6 °F - 44.6 °F 72% 29.41 in 10.0 mi SSE 10.4 mph - N/A   Clear
8:35 AM 53.6 °F - 46.4 °F 77% 29.42 in 10.0 mi SSE 10.4 mph - N/A   Clear
8:55 AM 57.2 °F - 46.4 °F 67% 29.42 in 10.0 mi South 10.4 mph - N/A   Clear
9:15 AM 59.0 °F - 46.4 °F 63% 29.41 in 10.0 mi South 13.8 mph - N/A   Clear
9:35 AM 59.0 °F - 46.4 °F 63% 29.40 in 10.0 mi South 19.6 mph - N/A   Clear
9:55 AM 59.0 °F - 46.4 °F 63% 29.40 in 10.0 mi South 19.6 mph 26.5 mph N/A   Clear
10:15 AM 60.8 °F - 48.2 °F 63% 29.41 in 10.0 mi South 15.0 mph - N/A   Scattered Clouds
10:35 AM 60.8 °F - 48.2 °F 63% 29.41 in 10.0 mi South 15.0 mph - N/A   Mostly Cloudy
10:55 AM 60.8 °F - 48.2 °F 63% 29.40 in 10.0 mi South 11.5 mph - N/A   Mostly Cloudy
11:15 AM 62.6 °F - 50.0 °F 63% 29.40 in 10.0 mi South 13.8 mph - N/A   Scattered Clouds
11:35 AM 62.6 °F - 50.0 °F 63% 29.40 in 10.0 mi South 16.1 mph - N/A   Scattered Clouds
12:15 PM 60.8 °F - 51.8 °F 72% 29.41 in 5.0 mi South 18.4 mph 23.0 mph 0.03 in   Overcast
12:35 PM 59.0 °F - 51.8 °F 77% 29.40 in 7.0 mi South 16.1 mph - 0.06 in   Overcast
12:55 PM 59.0 °F - 53.6 °F 82% 29.40 in 10.0 mi South 12.7 mph - 0.06 in   Overcast
1:15 PM 59.0 °F - 53.6 °F 82% 29.40 in 10.0 mi South 15.0 mph 18.4 mph N/A   Mostly Cloudy
1:35 PM 60.8 °F - 55.4 °F 82% 29.39 in 10.0 mi South 16.1 mph - N/A   Scattered Clouds
1:55 PM 59.0 °F - 53.6 °F 82% 29.38 in 10.0 mi South 16.1 mph - N/A   Mostly Cloudy
2:15 PM 60.8 °F - 53.6 °F 77% 29.37 in 10.0 mi South 19.6 mph - N/A   Overcast
2:35 PM 60.8 °F - 53.6 °F 77% 29.37 in 10.0 mi South 12.7 mph - N/A   Overcast
2:55 PM 59.0 °F - 53.6 °F 82% 29.36 in 10.0 mi South 11.5 mph - 0.02 in   Overcast
3:15 PM 59.0 °F - 53.6 °F 82% 29.36 in 7.0 mi SSE 9.2 mph - 0.02 in   Overcast
3:35 PM 57.2 °F - 53.6 °F 88% 29.35 in 10.0 mi SSE 11.5 mph - 0.03 in   Overcast
3:55 PM 55.4 °F - 53.6 °F 94% 29.34 in 10.0 mi South 9.2 mph - 0.03 in   Overcast
4:15 PM 55.4 °F - 53.6 °F 94% 29.35 in 7.0 mi South 15.0 mph - 0.01 in   Overcast
4:35 PM 55.4 °F - 53.6 °F 94% 29.35 in 7.0 mi South 12.7 mph - 0.02 in   Overcast
4:55 PM 55.4 °F - 53.6 °F 94% 29.35 in 5.0 mi South 11.5 mph - 0.04 in   Overcast
5:15 PM 55.4 °F - 53.6 °F 94% 29.35 in 3.0 mi SSW 8.1 mph - 0.06 in   Overcast
5:35 PM 55.4 °F - 53.6 °F 94% 29.35 in 5.0 mi SW 8.1 mph - 0.09 in   Overcast
5:55 PM 55.4 °F - 53.6 °F 94% 29.35 in 4.0 mi West 16.1 mph - 0.14 in   Overcast
6:15 PM 53.6 °F - 51.8 °F 94% 29.35 in 7.0 mi West 11.5 mph 17.3 mph 0.02 in   Overcast
6:35 PM 53.6 °F - 50.0 °F 88% 29.36 in 7.0 mi West 12.7 mph - 0.04 in   Overcast
6:55 PM 53.6 °F - 50.0 °F 88% 29.37 in 7.0 mi West 15.0 mph - 0.08 in   Overcast
7:15 PM 53.6 °F - 50.0 °F 88% 29.36 in 10.0 mi WSW 12.7 mph - 0.02 in   Overcast
7:35 PM 53.6 °F - 50.0 °F 88% 29.37 in 10.0 mi WSW 12.7 mph 17.3 mph 0.03 in   Overcast
7:55 PM 53.6 °F - 50.0 °F 88% 29.37 in 10.0 mi West 10.4 mph - 0.07 in   Overcast
8:15 PM 51.8 °F - 50.0 °F 94% 29.36 in 10.0 mi WSW 6.9 mph - 0.01 in   Overcast
8:35 PM 51.8 °F - 50.0 °F 94% 29.35 in 10.0 mi WSW 8.1 mph - 0.01 in   Overcast
8:55 PM 51.8 °F - 48.2 °F 88% 29.34 in 10.0 mi West 11.5 mph - 0.01 in   Scattered Clouds
9:15 PM 51.8 °F - 46.4 °F 82% 29.34 in 10.0 mi West 11.5 mph - N/A   Mostly Cloudy
9:35 PM 51.8 °F - 44.6 °F 76% 29.33 in 10.0 mi West 12.7 mph 17.3 mph N/A   Overcast
9:55 PM 50.0 °F - 42.8 °F 76% 29.34 in 10.0 mi West 11.5 mph - N/A   Overcast
10:15 PM 50.0 °F - 42.8 °F 76% 29.32 in 10.0 mi West 11.5 mph - N/A   Scattered Clouds
10:35 PM 50.0 °F - 42.8 °F 76% 29.32 in 10.0 mi West 10.4 mph - N/A   Scattered Clouds
10:55 PM 48.2 °F - 42.8 °F 82% 29.34 in 10.0 mi WSW 9.2 mph - N/A   Clear
11:15 PM 48.2 °F - 42.8 °F 82% 29.35 in 10.0 mi WSW 8.1 mph - N/A   Clear
11:35 PM 46.4 °F 41.5 °F 41.0 °F 81% 29.34 in 10.0 mi WSW 10.4 mph - N/A   Clear
11:55 PM 46.4 °F 40.1 °F 41.0 °F 81% 29.33 in 10.0 mi West 15.0 mph - N/A   Clear